Seattle Boeing, WA
on Monday, February 11, 2013

Monday
Previous Day Next Day
Daily Summary
 ActualAverage (KSEA)Record (KSEA)
Temperature
Mean Temperature °F 43°F  
Max Temperature 48°F 50°F 62°F (1963)
Min Temperature 41°F 37°F 23°F (1948)
Degree Days
Heating Degree Days 20 22  
Month to date heating degree days 242  
Since 1 July heating degree days 2891  
Cooling Degree Days 0 0  
Month to date cooling degree days 0  
Year to date cooling degree days 0  
Moisture
Dew Point 38°F   
Average Humidity 76    
Maximum Humidity 89    
Minimum Humidity 61    
Precipitation
Precipitation 0.01 in 0.13 in 0.81 in (1975)
Month to date precipitation 1.46  
Year to date precipitation 7.03  
Snow
Snow 0.00 in in 1.10 in (1981)
Month to date snowfall  
Since 1 July snowfall  
Snow Depth in   
Wind
Wind Speed 3 mph   
Max Wind Speed 9 mph   
Max Gust Speed mph   
Visibility 9 miles   
Events Rain   

Key: T is trace of precipitation, MM is missing value
Source: NWS Daily Summary
Time(PST)TemperatureDew PointHumidity Pressure Visibility Wind DirectionWind SpeedGust SpeedPrecipitationEvents Conditions
12:53 AM 45.0°F 37.9°F 76% 30.36 in 10.0 miles Calm Calm - N/A   Overcast
1:53 AM 44.1°F 37.9°F 79% 30.36 in 9.0 miles Calm Calm - 0.00 in Rain Light Rain
2:53 AM 43.0°F 37.9°F 82% 30.35 in 8.0 miles Calm Calm - 0.01 in   Overcast
3:53 AM 42.1°F 37.9°F 85% 30.34 in 8.0 miles Calm Calm - N/A   Overcast
4:53 AM 42.1°F 37.9°F 85% 30.35 in 7.0 miles Calm Calm - N/A   Overcast
5:53 AM 41.0°F 37.9°F 89% 30.35 in 6.0 miles Calm Calm - N/A   Overcast
6:53 AM 42.1°F 37.9°F 85% 30.35 in 9.0 miles ESE 3.5 mph - N/A   Overcast
7:53 AM 42.1°F 37.9°F 85% 30.34 in 7.0 miles SE 6.9 mph - N/A   Overcast
8:46 AM 42.8°F 37.4°F 81% 30.35 in 6.0 miles SE 5.8 mph - 0.00 in Rain Light Rain
8:53 AM 43.0°F 37.9°F 82% 30.35 in 6.0 miles SE 5.8 mph - 0.00 in Rain Light Rain
9:53 AM 44.1°F 39.0°F 82% 30.37 in 5.0 miles SE 4.6 mph - N/A   Haze
10:02 AM 44.6°F 39.2°F 81% 30.37 in 5.0 miles SE 5.8 mph - N/A   Haze
10:53 AM 45.0°F 37.9°F 76% 30.36 in 6.0 miles SSE 5.8 mph - N/A   Haze
11:53 AM 46.9°F 37.9°F 71% 30.35 in 10.0 miles SSE 9.2 mph - N/A   Overcast
12:53 PM 48.0°F 36.0°F 63% 30.34 in 10.0 miles South 4.6 mph - N/A   Overcast
1:53 PM 48.0°F 36.0°F 63% 30.34 in 10.0 miles South 6.9 mph - N/A   Overcast
2:53 PM 48.9°F 36.0°F 61% 30.33 in 10.0 miles South 6.9 mph - N/A   Overcast
3:29 PM 48.2°F 37.4°F 66% 30.33 in 10.0 miles South 4.6 mph - N/A   Overcast
3:53 PM 48.0°F 37.0°F 66% 30.33 in 10.0 miles South 4.6 mph - N/A   Overcast
4:53 PM 48.0°F 37.9°F 68% 30.34 in 10.0 miles SSW 3.5 mph - N/A   Overcast
5:53 PM 46.9°F 39.0°F 74% 30.34 in 10.0 miles SSW 3.5 mph - N/A   Overcast
6:53 PM 46.9°F 39.0°F 74% 30.35 in 10.0 miles SW 3.5 mph - N/A   Overcast
7:53 PM 46.9°F 39.9°F 77% 30.34 in 10.0 miles SSE 4.6 mph - N/A   Overcast
8:53 PM 46.9°F 39.0°F 74% 30.34 in 10.0 miles SE 5.8 mph - N/A   Overcast
9:53 PM 46.9°F 39.0°F 74% 30.34 in 10.0 miles ESE 3.5 mph - N/A   Overcast
10:00 PM 46.4°F 39.2°F 76% 30.34 in 10.0 miles Calm Calm - N/A   Overcast
10:53 PM 46.9°F 39.9°F 77% 30.35 in 10.0 miles Calm Calm - N/A   Overcast
11:04 PM 46.4°F 39.2°F 76% 30.35 in 10.0 miles East 3.5 mph - N/A   Overcast
11:53 PM 46.9°F 39.9°F 77% 30.36 in 10.0 miles ESE 3.5 mph - N/A   Overcast
Moon Phase
Feb. 11 Feb. 17 Feb. 25 Mar. 04 Mar. 11
Sunrise:07:20 AM (PST) Moon Rise:07:37 AM (PST)2/11
Sunset:05:26 PM (PST) Moon Set:07:42 PM (PST)2/11

Copyright © 2014 The Weather Underground, Inc.